Weather in Dastakert

Armenia     39°22′45″N   46°01′44″E
temp.,
°C
wind,
m/s
gust,
m/s
humid.,
%
clouds,
%
prec.,
mm/h
press.,
hPa
HPBL,
m
27 february, sat
sat2701:00−9w11820 0.0 102621
04:00−9w12760 0.0 102521
07:00−9w226841 0.0 102522
10:00−4wsw226929 0.0 1024124
13:00−1wsw33730 0.0 1021383
16:00−1w33760 0.0 1019407
19:00−6w23740 0.0 101925
22:00−7w22630 0.0 102025
28 february, sun
sun2801:00−7w22590 0.0 101924
04:00−8w22610 0.0 101924
07:00−8w22630 0.0 101923
10:00−3w23680 0.0 1018145
13:00−1w33690 0.0 1016481
16:00−1w23670 0.0 1013503
19:00−5w22740 0.0 101527
22:00−6w12690 0.0 101629
1 march, mon
mon101:00−6w12630 0.0 101725
04:00−7wnw12630 0.0 101723
07:00−7wnw12660 0.0 101822
10:00−3w01650 0.0 1019154
13:00−1ssw126443 0.0 1019798
16:000sw236371 0.2 1018927
19:00−4ese228648 0.1 101960
22:00−5e229255 0.2 102189
2 march, tue
tue201:00−5e239272 0.3 1022153
04:00−5e229586 2.4 1023174
07:00−5ene2296100 3.1 1024145
10:00−5e2294100 5.2 1025251
13:00−3e1296100 2.1 1025263
16:00−2s1293100 3.4 1023325
19:00−4wsw119799 0.6 102352
22:00−6w229388 0.8 102451
3 march, wed
wed301:00−8w229180 0.1 102432
04:00−9w228961 0.1 102229
07:00−9w239145 0.0 102233
10:00−6w348746 0.0 1021383
13:00−3wsw467971 0.0 1019922
16:00−3wsw457251 0.1 1017871
19:00−7w238210 0.0 101934
22:00−9wnw22745 0.0 102144